Leonardtown, MD

10:00 AM EDT on May 24, 2018 (GMT -0400)
Leonardtown

Weather History for K2W6 - November, 2012

Change the Weather History Date:

Sunday, November 11, 2012

  Actual Average (KNHK) Record (KNHK)
Temperature  
Mean Temperature 56 °F -  
Max Temperature 69 °F 57 °F 74 °F (1985)
Min Temperature 44 °F 42 °F 28 °F (1987)
Degree Days  
Heating Degree Days 8    
Growing Degree Days 6 (Base 50)    
Moisture  
Dew Point 41 °F    
Average Humidity 62    
Maximum Humidity 82    
Minimum Humidity 28    
Precipitation  
Precipitation 0.00 in - - ()
Sea Level Pressure  
Sea Level Pressure 30.44 in    
Wind  
Wind Speed 3 mph (SSE)    
Max Wind Speed 7 mph    
Max Gust Speed -    
Visibility 10 miles    
Events      
Averages and records for this station are not official NWS values.
T = Trace of Precipitation, MM = Missing Value Source: NWS Daily Summary

Daily Weather History Graph

Daily Weather History Graph

Search for Another Location

Airport or City:

Astronomy

Nov. 11, 2012 Rise Set
Actual Time 6:43 AM EST 4:56 PM EST
Civil Twilight 6:15 AM EST 5:24 PM EST
Nautical Twilight 5:43 AM EST 5:56 PM EST
Astronomical Twilight 5:12 AM EST 6:27 PM EST
Moon 3:56 AM EST (11/11) 3:17 PM EST (11/11)
Length of Visible Light 11h 08m
Length of Day
10h 12m
Waning Crescent, 7% of the Moon is Illuminated
Nov 11
Waning Crescent
Nov 13
New
Nov 20
First Quarter
Nov 28
Full
Dec 6
Last Quarter

Hourly Weather History & Observations

Time (EST) Temp. Windchill Dew Point Humidity Pressure Visibility Wind Dir Wind Speed Gust Speed Precip Events Conditions
12:13 AM 46.4 °F - 41.0 °F 81% 30.40 in 10.0 mi Calm Calm - N/A   Clear
12:34 AM 46.4 °F - 41.0 °F 81% 30.40 in 10.0 mi Calm Calm - N/A   Clear
12:56 AM 46.4 °F - 41.0 °F 81% 30.39 in 10.0 mi Calm Calm - N/A   Clear
1:17 AM 46.4 °F - 41.0 °F 81% 30.39 in 10.0 mi Calm Calm - N/A   Clear
1:38 AM 46.4 °F - 41.0 °F 81% 30.39 in 10.0 mi Calm Calm - N/A   Clear
1:59 AM 46.4 °F - 41.0 °F 81% 30.39 in 10.0 mi Calm Calm - N/A   Clear
2:21 AM 48.2 °F - 41.0 °F 76% 30.39 in 10.0 mi Calm Calm - N/A   Clear
2:42 AM 48.2 °F - 41.0 °F 76% 30.39 in 10.0 mi South 3.5 mph - N/A   Clear
3:03 AM 48.2 °F - 41.0 °F 76% 30.39 in 10.0 mi South 3.5 mph - N/A   Clear
3:25 AM 48.2 °F - 39.2 °F 71% 30.39 in 10.0 mi South 4.6 mph - N/A   Clear
3:46 AM 48.2 °F - 41.0 °F 76% 30.39 in 10.0 mi South 4.6 mph - N/A   Clear
4:07 AM 46.4 °F 45.2 °F 41.0 °F 81% 30.40 in 10.0 mi SSE 3.5 mph - N/A   Clear
4:28 AM 46.4 °F - 41.0 °F 81% 30.41 in 10.0 mi Calm Calm - N/A   Clear
4:50 AM 46.4 °F 45.2 °F 41.0 °F 81% 30.42 in 10.0 mi SSE 3.5 mph - N/A   Clear
5:11 AM 46.4 °F 45.2 °F 41.0 °F 81% 30.42 in 10.0 mi South 3.5 mph - N/A   Clear
5:53 AM 46.4 °F 45.2 °F 41.0 °F 81% 30.43 in 10.0 mi South 3.5 mph - N/A   Clear
6:15 AM 44.6 °F - 39.2 °F 81% 30.44 in 10.0 mi Calm Calm - N/A   Clear
6:36 AM 44.6 °F - 39.2 °F 81% 30.44 in 10.0 mi Calm Calm - N/A   Clear
7:18 AM 46.4 °F 44.3 °F 41.0 °F 81% 30.46 in 10.0 mi South 4.6 mph - N/A   Clear
7:40 AM 46.4 °F 44.3 °F 41.0 °F 81% 30.47 in 10.0 mi SSW 4.6 mph - N/A   Clear
8:22 AM 51.8 °F - 41.0 °F 67% 30.48 in 10.0 mi SSW 4.6 mph - N/A   Clear
9:47 AM 59.0 °F - 41.0 °F 51% 30.49 in 10.0 mi South 3.5 mph - N/A   Clear
10:08 AM 60.8 °F - 39.2 °F 45% 30.49 in 10.0 mi SSW 3.5 mph - N/A   Clear
10:29 AM 60.8 °F - 41.0 °F 48% 30.49 in 10.0 mi SE 3.5 mph - N/A   Clear
10:51 AM 62.6 °F - 41.0 °F 45% 30.48 in 10.0 mi South 3.5 mph - N/A   Clear
11:12 AM 64.4 °F - 41.0 °F 42% 30.47 in 10.0 mi SSE 3.5 mph - N/A   Clear
11:33 AM 64.4 °F - 39.2 °F 40% 30.47 in 10.0 mi SE 4.6 mph - N/A   Clear
11:54 AM 68.0 °F - 37.4 °F 33% 30.46 in 10.0 mi SSW 5.8 mph - N/A   Clear
12:16 PM 68.0 °F - 41.0 °F 37% 30.45 in 10.0 mi SSE 5.8 mph - N/A   Clear
12:37 PM 68.0 °F - 37.4 °F 33% 30.45 in 10.0 mi South 5.8 mph - N/A   Clear
1:19 PM 69.8 °F - 39.2 °F 33% 30.43 in 10.0 mi South 4.6 mph - N/A   Clear
1:41 PM 69.8 °F - 37.4 °F 31% 30.42 in 10.0 mi SSE 4.6 mph - N/A   Clear
2:02 PM 69.8 °F - 37.4 °F 31% 30.42 in 10.0 mi SSW 3.5 mph - N/A   Clear
2:23 PM 69.8 °F - 35.6 °F 28% 30.42 in 10.0 mi SSE 6.9 mph - N/A   Clear
2:44 PM 69.8 °F - 37.4 °F 31% 30.42 in 10.0 mi SSE 5.8 mph - N/A   Clear
3:05 PM 69.8 °F - 37.4 °F 31% 30.42 in 10.0 mi SSE 6.9 mph - N/A   Clear
3:27 PM 69.8 °F - 37.4 °F 31% 30.42 in 10.0 mi SSE 4.6 mph - N/A   Clear
3:48 PM 68.0 °F - 39.2 °F 35% 30.43 in 10.0 mi SSE 3.5 mph - N/A   Clear
4:09 PM 66.2 °F - 41.0 °F 40% 30.43 in 10.0 mi ESE 5.8 mph - N/A   Clear
4:31 PM 62.6 °F - 42.8 °F 48% 30.43 in 10.0 mi SE 6.9 mph - N/A   Clear
4:52 PM 62.6 °F - 42.8 °F 48% 30.44 in 10.0 mi SE 6.9 mph - N/A   Clear
5:13 PM 60.8 °F - 44.6 °F 55% 30.44 in 10.0 mi SE 6.9 mph - N/A   Clear
5:34 PM 59.0 °F - 42.8 °F 55% 30.45 in 10.0 mi SE 4.6 mph - N/A   Clear
5:55 PM 59.0 °F - 42.8 °F 55% 30.46 in 10.0 mi SE 4.6 mph - N/A   Clear
6:17 PM 59.0 °F - 42.8 °F 55% 30.47 in 10.0 mi SE 6.9 mph - N/A   Clear
6:38 PM 59.0 °F - 42.8 °F 55% 30.47 in 10.0 mi SE 6.9 mph - N/A   Clear
6:59 PM 57.2 °F - 42.8 °F 59% 30.47 in 10.0 mi SE 6.9 mph - N/A   Clear
7:20 PM 57.2 °F - 42.8 °F 59% 30.47 in 10.0 mi SE 5.8 mph - N/A   Clear
7:42 PM 55.4 °F - 42.8 °F 63% 30.47 in 10.0 mi SE 3.5 mph - N/A   Clear
8:03 PM 55.4 °F - 42.8 °F 63% 30.47 in 10.0 mi SE 5.8 mph - N/A   Clear
8:24 PM 55.4 °F - 44.6 °F 67% 30.47 in 10.0 mi SE 5.8 mph - N/A   Clear
8:45 PM 53.6 °F - 44.6 °F 72% 30.47 in 10.0 mi SE 5.8 mph - N/A   Clear
9:07 PM 53.6 °F - 46.4 °F 77% 30.47 in 10.0 mi SSE 3.5 mph - N/A   Clear
9:28 PM 53.6 °F - 46.4 °F 77% 30.47 in 10.0 mi SE 4.6 mph - N/A   Clear
9:49 PM 53.6 °F - 46.4 °F 77% 30.47 in 10.0 mi SSE 3.5 mph - N/A   Clear
10:10 PM 51.8 °F - 46.4 °F 82% 30.47 in 10.0 mi Calm Calm - N/A   Clear
10:32 PM 51.8 °F - 46.4 °F 82% 30.46 in 10.0 mi SE 3.5 mph - N/A   Clear
11:14 PM 51.8 °F - 46.4 °F 82% 30.45 in 10.0 mi SSE 5.8 mph - N/A   Clear
11:36 PM 51.8 °F - 46.4 °F 82% 30.45 in 10.0 mi South 3.5 mph - N/A   Clear
11:57 PM 51.8 °F - 46.4 °F 82% 30.45 in 10.0 mi SSE 3.5 mph - N/A   Clear